Lapse_Rate
6.2 6.5 6.6 6.6 6.8 6.5 7.4 7.0 7.5 7.8 7.8 7.9 8.0 8.5 8.2 8.1 8.1 8.3 8.5 8.7 8.3 8.0 7.9 7.8 7.8 7.7 7.3 7.1 7.0 7.1 7.2 7.1 7.0 6.8 6.5 6.3 6.3 6.1 5.9 5.8 5.8 5.7 5.6 5.7 5.7 5.8 5.8 5.7 5.6
6.3 6.4 6.6 6.5 6.5 6.2 7.6 7.6 7.6 7.9 7.6 7.7 8.0 8.2 8.2 8.1 8.3 8.4 8.4 8.8 8.5 8.4 8.1 7.9 7.7 7.7 7.5 7.4 7.2 7.3 7.4 7.1 7.0 6.6 6.5 6.4 6.3 6.2 6.0 6.0 5.9 5.9 5.9 5.9 5.9 5.9 5.9 5.9 5.8
6.3 6.4 6.3 6.2 6.3 6.7 7.2 7.7 7.6 7.8 7.6 7.6 7.9 8.2 8.4 8.3 8.4 8.6 8.3 8.3 8.3 8.1 8.2 7.9 7.5 7.7 7.5 7.4 7.3 7.4 7.6 7.3 6.9 6.7 6.5 6.4 6.3 6.2 6.1 6.1 6.1 5.9 5.9 5.9 6.1 6.1 6.1 6.1 6.1
6.1 6.2 6.2 6.0 6.7 7.3 7.6 7.9 8.1 8.4 7.7 7.7 7.7 7.8 8.2 8.3 8.5 8.4 8.4 8.2 8.4 8.2 8.3 8.0 7.7 7.5 7.6 7.3 7.3 7.2 7.4 7.5 7.2 6.9 6.6 6.5 6.3 6.2 6.2 6.2 6.1 6.2 6.2 6.2 6.2 6.3 6.4 6.4 6.3
5.9 6.1 5.9 5.7 6.3 7.4 7.6 7.8 8.1 8.2 7.9 7.5 7.7 7.4 7.7 8.1 8.4 8.2 8.2 7.9 8.0 8.1 8.3 8.3 7.9 7.8 7.9 7.7 7.4 7.4 7.3 7.4 7.3 7.0 6.8 6.6 6.5 6.4 6.4 6.3 6.3 6.3 6.3 6.3 6.5 6.7 6.7 6.7 6.7
5.8 5.7 5.5 5.5 6.3 7.3 7.4 7.6 7.7 8.2 7.9 7.5 7.7 7.7 7.4 7.8 8.2 8.3 8.1 8.2 8.1 8.0 8.1 8.2 8.3 7.9 7.9 8.0 7.9 7.8 7.7 7.6 7.4 7.1 7.0 6.9 6.8 6.7 6.6 6.6 6.5 6.5 6.6 6.6 6.8 6.9 7.0 7.1 7.0
5.8 5.7 5.5 5.6 6.1 6.8 7.5 7.8 7.8 7.9 8.2 7.9 7.7 7.7 7.7 7.7 7.8 8.1 8.3 8.3 8.4 8.2 8.1 7.9 8.1 8.1 8.0 7.9 8.0 8.0 8.1 7.9 7.6 7.4 7.2 7.1 7.1 7.1 6.9 6.9 6.8 6.8 6.7 6.8 7.0 7.0 7.1 7.2 7.1
6.1 5.6 5.5 5.4 5.7 6.4 7.6 7.6 7.5 7.8 8.3 7.8 7.8 8.0 7.9 7.7 7.6 8.1 8.3 8.0 8.1 8.3 8.2 8.0 8.1 8.1 8.0 8.1 7.9 7.9 8.1 8.1 8.1 7.8 7.5 7.4 7.4 7.3 7.2 7.1 7.1 7.0 6.9 7.0 7.1 7.1 7.2 7.1 7.2
6.2 5.5 5.4 5.8 5.8 7.2 7.7 7.3 7.6 7.4 8.0 7.9 7.3 7.4 7.9 7.6 7.3 7.5 7.6 8.2 7.9 8.0 8.2 8.2 8.0 8.0 8.1 8.0 8.0 7.7 7.6 7.6 7.7 7.9 7.9 7.6 7.6 7.5 7.4 7.3 7.2 7.1 7.1 7.1 7.2 7.2 7.2 7.2 7.3
5.9 5.8 6.0 6.3 6.3 6.7 7.4 7.1 7.6 7.5 7.5 7.9 7.8 7.2 7.7 7.5 7.2 7.1 7.1 7.5 7.9 8.0 8.1 8.4 8.1 8.0 7.9 7.9 8.0 8.0 7.7 7.8 7.8 7.8 7.8 7.7 7.6 7.6 7.5 7.4 7.4 7.2 7.2 7.3 7.3 7.3 7.4 7.3 7.4
6.3 6.0 6.4 6.6 6.4 6.4 7.0 7.2 7.4 7.3 7.5 7.8 8.0 7.9 7.8 8.0 7.6 7.4 7.3 7.1 7.2 7.2 7.5 7.8 8.1 7.9 7.9 8.0 8.0 8.0 8.1 8.0 7.9 7.9 7.8 7.7 7.6 7.6 7.6 7.5 7.5 7.2 7.1 7.2 7.4 7.4 7.4 7.5 7.4
5.9 5.8 5.8 6.4 6.4 6.3 6.5 7.1 7.3 7.4 7.4 7.7 7.5 7.9 7.9 7.8 7.4 7.3 7.5 7.3 7.4 7.7 7.5 7.3 7.5 7.4 7.3 7.6 7.9 8.0 8.2 8.3 8.2 8.0 7.8 7.8 7.8 7.7 7.8 7.7 7.5 7.4 7.3 7.3 7.4 7.5 7.5 7.4 7.4
5.3 5.7 5.7 6.0 6.4 6.4 6.6 6.6 7.0 7.3 7.1 7.7 7.7 8.0 7.8 7.7 7.5 7.4 7.4 7.3 7.4 7.4 7.5 7.6 7.8 7.7 7.5 7.3 7.6 8.0 8.2 8.1 8.1 7.9 7.5 7.7 7.7 7.6 7.7 7.7 7.6 7.5 7.4 7.3 7.5 7.7 7.6 7.5 7.5
5.8 5.7 6.0 6.1 6.5 6.6 6.6 6.9 6.9 7.6 7.3 7.4 7.6 8.2 8.0 8.0 7.7 7.5 7.3 7.4 7.4 7.5 7.7 7.4 7.0 7.0 7.5 7.6 7.5 7.7 7.9 8.0 7.8 7.8 7.7 7.6 7.6 7.5 7.4 7.6 7.6 7.6 7.4 7.4 7.6 7.7 7.6 7.6 7.6
6.1 6.1 6.1 6.3 6.7 6.9 7.1 7.0 7.4 7.4 7.7 7.7 7.6 8.0 8.2 8.0 7.8 7.6 7.4 7.2 7.3 7.5 7.6 7.6 8.1 7.7 7.5 7.6 7.8 7.6 7.7 7.6 7.7 7.7 7.8 7.5 7.5 7.5 7.5 7.4 7.5 7.5 7.4 7.1 7.5 7.7 7.7 7.6 7.5
6.3 6.2 6.2 7.0 7.1 7.3 7.6 7.0 7.8 7.9 7.8 7.9 7.9 7.9 8.1 8.0 7.7 7.6 7.6 7.6 7.5 7.6 8.0 7.8 7.6 7.8 7.8 7.9 8.1 7.7 7.8 7.8 7.7 7.6 7.6 7.6 7.3 7.3 7.2 7.4 7.4 7.4 7.4 7.4 7.2 7.5 7.7 7.7 7.5
6.6 6.4 6.5 6.9 7.4 7.6 7.8 6.7 7.2 8.1 8.0 7.9 8.0 8.1 8.2 8.2 8.1 7.9 7.8 7.9 8.1 7.7 7.6 7.9 8.0 7.8 8.0 8.0 8.0 7.9 7.8 7.6 7.4 7.7 7.8 7.8 7.5 7.6 7.5 7.4 7.4 7.5 7.3 7.7 7.3 7.1 7.4 7.7 7.8
6.9 6.6 6.5 6.5 7.5 7.9 7.7 6.7 7.1 7.6 8.1 7.8 7.7 7.9 8.1 8.0 7.8 7.8 7.9 7.8 7.8 7.9 7.9 8.1 8.2 8.0 8.3 8.4 8.2 8.3 8.1 7.4 6.7 7.2 7.5 7.5 7.6 7.4 7.6 7.5 7.5 7.5 7.6 7.4 8.1 7.5 7.5 7.2 7.5
6.6 6.6 6.5 6.9 7.4 7.5 7.4 6.7 6.8 7.5 7.8 7.9 7.9 7.9 7.9 8.0 8.0 8.0 7.9 8.0 8.0 8.3 8.4 8.9 8.8 8.1 7.6 7.9 7.8 8.0 7.9 7.7 6.7 6.5 7.0 6.3 7.0 7.4 7.5 7.5 7.6 7.7 7.8 7.4 7.8 7.7 7.4 7.3 7.1
6.9 6.9 7.0 7.2 7.6 7.6 7.5 7.1 7.2 7.7 8.0 7.9 8.1 8.4 8.1 7.8 8.1 8.3 8.2 8.0 8.1 8.1 8.1 7.8 7.9 8.0 7.8 7.5 7.4 7.5 7.6 7.6 7.2 6.8 6.6 6.8 7.1 6.8 6.8 7.4 7.5 7.0 7.1 7.3 7.1 7.0 7.2 7.0 6.8
7.3 7.3 7.5 7.7 7.7 7.5 7.7 7.5 7.3 7.6 8.1 8.2 8.2 8.4 8.0 7.9 7.9 8.0 8.1 8.1 8.1 8.2 8.0 7.9 7.8 7.7 7.8 7.6 7.5 7.6 7.4 7.3 7.4 7.2 7.3 7.5 7.2 6.5 6.5 6.6 6.7 7.3 6.7 6.7 6.8 6.5 6.6 6.9 6.9
7.2 7.6 7.7 7.8 7.9 7.8 8.1 7.3 7.5 7.8 8.3 8.4 8.2 8.1 8.3 8.1 8.0 7.9 7.8 7.9 7.9 7.7 7.9 8.0 7.9 7.9 7.7 7.5 7.3 7.1 7.0 7.6 7.6 7.1 6.8 7.0 7.3 7.0 7.1 6.8 6.6 6.6 7.2 5.9 6.7 6.2 5.9 6.5 6.9
7.4 7.9 7.9 8.0 8.0 8.3 8.1 8.0 7.5 7.7 7.9 8.4 8.4 8.5 8.3 8.4 8.3 8.1 8.2 8.1 8.0 8.1 7.9 7.9 7.6 7.5 7.4 7.4 7.4 7.3 7.1 7.0 7.2 7.3 7.1 6.7 7.0 7.0 7.1 7.0 6.6 6.7 7.1 6.5 6.1 6.7 5.6 5.9 6.6
7.8 7.8 8.1 8.1 8.2 7.6 7.8 8.4 7.5 7.6 8.0 8.2 8.5 8.7 8.6 8.6 8.4 8.5 8.6 8.3 8.1 8.0 8.0 7.8 7.6 7.5 7.4 7.5 7.4 7.2 7.1 7.1 7.3 7.4 7.3 7.1 7.0 6.9 6.8 6.8 6.7 6.6 6.9 7.4 7.1 6.8 6.8 6.3 5.8
7.6 7.8 6.7 7.0 7.4 7.2 8.0 8.2 7.6 7.8 8.0 8.1 8.2 8.3 8.4 8.3 8.7 8.8 8.9 8.6 8.6 8.1 7.8 7.9 7.9 7.9 7.7 7.6 7.6 7.3 7.2 7.0 6.9 7.3 7.4 7.2 7.1 7.0 7.0 7.0 7.0 6.4 6.7 6.6 6.9 6.7 6.4 6.1 6.2
7.7 7.1 6.3 6.8 6.4 7.1 7.6 7.4 7.2 8.1 8.1 8.2 8.5 7.8 7.8 8.2 8.4 8.7 9.1 8.5 8.7 8.4 8.4 8.1 8.0 7.8 7.8 7.8 7.6 7.4 7.2 7.1 6.9 7.0 7.3 7.5 7.3 7.0 7.1 6.9 6.9 6.7 6.8 7.0 7.3 7.0 6.0 6.1 5.8
7.4 7.1 7.2 6.8 6.7 6.1 6.7 7.1 7.6 7.9 7.8 8.3 7.9 7.5 7.9 8.4 8.5 8.3 8.6 8.9 9.0 8.7 8.6 8.6 8.2 8.0 7.8 7.4 7.4 7.4 7.2 7.1 7.0 7.1 7.2 7.2 7.4 7.4 7.2 7.1 6.8 6.8 6.9 7.1 7.1 7.4 6.6 6.2 6.3
6.9 6.9 6.9 6.8 7.0 6.6 6.5 6.6 7.1 8.1 8.2 8.3 8.4 8.4 7.8 7.8 8.1 8.2 8.6 9.0 8.7 8.8 8.6 8.4 8.3 7.9 7.8 7.8 7.4 6.8 6.5 6.5 6.7 6.8 7.1 7.2 7.3 7.2 7.3 7.5 7.5 7.6 7.4 7.3 7.2 7.1 6.7 6.2 5.8
6.8 6.7 6.7 7.0 7.0 6.6 6.4 7.3 7.6 7.4 7.5 7.6 8.0 7.8 7.9 7.4 7.8 7.9 8.0 8.0 7.9 7.7 7.8 8.1 8.2 8.0 7.7 7.3 7.0 6.8 6.8 6.6 6.5 6.7 6.9 7.0 7.2 7.3 7.4 7.4 7.5 7.7 7.3 7.1 6.9 7.2 6.9 6.4 6.5
7.0 7.3 7.2 7.3 7.0 6.6 6.4 6.7 8.0 7.8 7.7 7.6 7.5 8.0 7.9 7.8 7.4 7.5 7.5 7.5 7.3 7.2 7.2 7.2 7.4 7.4 7.5 7.3 7.0 6.8 6.5 6.6 6.7 6.7 6.7 6.6 6.7 6.9 7.2 7.3 7.2 7.2 7.0 7.0 6.9 6.8 6.8 6.8 6.6
Wind_Speed
10 15 0 4 4 4 4 3 3 7 7 4 7 2 8 5 2 3 5 10 18 16 18 20 20 20 22 23 24 25 25 25 25 25 24 24 23 22 20 19 17 16 15 14 13 12 11 11 11
6 6 4 2 4 1 5 4 3 3 5 8 6 4 6 3 2 4 4 4 16 17 16 18 21 19 22 22 24 25 24 24 24 23 23 23 22 21 19 18 16 15 14 13 13 11 10 10 10
5 2 3 3 3 5 4 3 5 6 8 3 2 2 3 2 2 5 5 13 13 13 18 16 20 18 20 22 22 23 24 22 21 21 20 19 19 18 17 16 15 14 13 12 11 11 10 9 8
3 4 4 3 7 6 5 5 5 13 5 8 0 4 2 1 1 6 15 18 13 13 15 20 21 18 18 19 20 21 22 22 21 20 18 17 16 15 15 14 13 13 12 11 10 9 9 9 8
3 3 1 1 7 4 3 7 8 11 4 7 0 3 4 3 4 15 14 14 14 12 13 19 24 22 19 19 20 20 21 19 20 19 19 17 15 13 13 13 12 11 10 9 8 8 7 7 6
2 3 2 4 8 9 1 4 6 5 6 3 3 4 3 2 6 7 13 14 12 11 9 16 20 23 22 20 20 20 21 21 17 17 17 17 16 14 12 12 12 10 10 8 8 8 7 6 4
5 4 6 5 5 10 2 1 7 6 11 7 5 6 3 3 9 10 8 8 10 11 12 13 15 19 22 20 19 21 22 22 21 17 17 17 16 16 15 14 13 12 11 10 9 7 5 3 1
4 4 4 5 6 13 4 1 5 7 14 8 3 5 6 5 7 11 10 8 8 8 12 15 15 16 16 18 21 19 20 23 24 23 18 17 17 16 15 16 15 13 12 10 9 8 6 4 3
4 2 5 8 8 14 9 3 1 5 6 6 5 5 9 8 7 8 11 7 7 7 8 13 14 11 14 15 19 20 19 18 19 21 22 20 13 15 15 15 15 14 13 11 10 9 7 6 6
4 4 8 4 7 10 7 4 4 6 13 8 11 5 8 8 7 12 13 13 12 12 11 13 14 9 10 13 15 15 17 15 14 13 15 13 14 14 13 13 15 14 13 12 10 8 8 7 6
5 9 4 4 5 9 14 14 5 5 11 10 13 7 5 6 6 9 12 18 21 15 11 12 13 12 11 10 10 11 11 11 11 11 12 11 11 12 11 10 10 12 11 7 8 8 9 8 7
5 5 5 8 9 10 12 10 13 6 13 10 12 7 5 10 9 8 7 8 10 15 15 14 14 13 10 7 9 8 8 11 9 14 12 9 4 5 5 6 9 7 7 6 6 6 8 8 9
5 6 9 12 12 10 12 16 12 21 15 10 15 7 11 10 10 9 11 7 7 11 13 16 14 14 11 10 9 10 10 9 12 12 13 10 5 5 4 4 5 5 6 5 4 5 4 4 5
3 4 7 7 8 6 8 13 5 18 10 15 17 11 9 10 10 4 5 13 13 10 13 16 18 16 15 13 14 12 10 11 11 13 14 15 10 3 4 4 4 4 9 9 6 4 4 4 4
3 5 6 4 4 4 6 7 15 8 10 12 10 8 8 11 7 10 14 10 11 10 14 16 17 16 16 18 14 11 10 11 9 9 17 17 13 8 6 4 4 4 9 8 6 4 3 3 3
6 3 4 4 1 6 4 14 13 7 5 9 10 9 9 9 12 11 8 9 10 9 12 12 14 16 15 13 11 11 11 10 10 11 15 19 18 14 5 6 5 6 6 4 3 4 3 3 3
5 5 5 7 4 4 6 9 7 7 7 10 11 10 10 9 8 9 10 9 10 11 12 13 14 15 16 11 8 8 7 6 2 4 8 15 17 18 8 7 5 8 4 4 3 3 3 3 3
5 5 6 5 4 1 10 17 9 10 7 13 10 13 10 10 13 12 10 9 9 8 8 12 12 13 14 8 5 4 5 6 6 7 4 10 13 16 10 7 6 5 4 4 3 5 3 3 3
5 5 10 13 15 4 12 13 9 10 8 13 10 10 10 12 10 8 7 7 7 7 8 11 10 8 9 5 6 4 5 4 3 5 8 8 10 11 12 10 7 6 6 6 4 3 3 2 2
8 12 15 11 14 6 10 14 9 7 9 7 10 9 10 6 4 2 4 6 11 12 9 8 8 8 8 6 3 3 4 3 4 4 7 15 11 10 10 9 8 8 5 6 5 4 2 2 3
10 7 12 12 6 5 2 9 6 4 5 6 6 3 5 8 8 6 5 8 8 9 10 9 9 9 7 6 5 4 4 2 4 4 4 5 8 12 12 13 7 8 5 5 5 4 6 4 3
6 9 9 9 4 7 3 11 5 5 8 6 9 8 9 9 8 7 10 8 8 11 7 9 9 9 8 8 5 4 4 4 4 4 4 5 6 7 5 8 7 8 8 7 5 4 5 3 4
7 7 7 9 5 1 2 1 8 2 6 9 9 11 11 10 9 11 11 15 12 8 11 8 8 8 7 7 7 5 4 3 3 2 2 4 4 6 7 5 5 7 8 9 12 7 7 4 4
8 6 5 5 2 3 7 7 14 9 7 5 5 8 12 15 11 10 13 14 7 7 8 8 9 7 8 8 7 8 7 5 3 4 3 3 3 3 5 5 5 4 4 4 7 12 13 13 8
9 6 5 4 3 13 8 4 17 4 6 8 9 10 14 16 16 11 11 12 10 10 12 9 9 7 7 8 8 8 7 6 6 4 4 4 2 2 5 4 5 4 5 6 5 5 7 7 10
3 4 3 7 5 7 4 8 18 4 7 8 7 7 10 12 12 13 15 16 18 14 9 10 10 8 8 8 8 6 6 4 4 4 4 4 4 3 3 5 5 4 4 4 3 4 6 8 6
4 5 3 4 5 4 5 8 13 13 7 4 8 10 13 12 9 9 3 13 17 14 11 10 9 8 9 9 7 7 6 6 6 6 3 3 3 3 5 5 4 6 6 6 6 6 8 6 6
1 3 0 2 4 5 4 5 7 11 8 8 1 10 8 11 14 12 9 9 8 1 8 8 9 11 9 9 7 7 8 7 7 5 6 6 5 4 4 4 4 5 3 4 5 6 6 6 7
2 2 1 2 3 3 3 5 3 5 6 13 7 4 5 6 7 8 8 8 6 2 4 6 10 10 8 8 8 7 7 7 5 5 5 6 4 5 5 5 5 4 5 4 5 6 9 9 10
4 5 5 3 3 3 4 5 4 7 7 14 17 8 6 4 6 4 6 6 7 5 4 6 8 9 12 12 8 8 7 6 6 7 7 6 7 5 6 6 4 5 6 6 6 9 9 11 11
Wind_Direction
323 315 325 37 58 51 261 270 234 299 340 334 303 274 130 106 256 222 332 146 134 149 156 157 157 151 139 133 131 130 130 132 133 133 132 134 134 134 134 135 132 135 140 141 141 138 133 126 120
322 322 36 76 96 109 283 222 295 266 272 307 300 356 39 31 89 103 80 118 143 146 155 157 156 153 141 138 136 134 135 136 136 135 138 139 137 138 139 135 137 145 148 150 146 139 135 129 125
329 4 71 106 131 195 218 220 277 289 301 325 188 89 60 350 7 138 126 133 134 149 156 160 153 152 145 141 140 139 137 136 135 137 138 137 137 140 138 140 144 151 156 154 149 144 139 132 121
351 12 31 108 227 258 212 299 339 326 358 342 6 39 338 205 210 156 143 139 140 158 155 160 151 150 148 145 143 142 138 140 140 142 140 139 142 140 140 145 151 157 162 159 154 149 147 136 132
37 68 73 235 259 238 270 314 308 310 334 304 40 316 346 14 61 130 142 147 152 157 158 160 154 151 152 152 149 146 143 143 144 147 146 147 145 145 149 152 156 163 160 160 159 159 152 143 136
56 95 97 225 252 258 196 313 291 306 339 268 61 120 256 99 132 158 152 155 152 150 157 162 160 152 154 159 155 153 150 145 151 152 153 153 152 153 156 158 164 168 164 168 174 173 173 164 151
140 107 209 217 256 280 223 257 308 322 325 265 206 146 246 247 197 151 150 134 139 146 157 168 166 160 155 158 163 160 155 153 154 158 159 160 159 159 165 169 174 172 176 178 187 196 193 181 168
127 116 205 214 226 263 249 269 318 321 307 331 359 195 220 228 163 157 134 129 130 150 162 170 170 163 159 162 165 166 165 163 162 161 166 167 167 169 174 179 183 182 185 189 198 203 209 207 239
121 146 219 214 209 246 303 292 135 288 273 340 253 227 227 119 100 126 125 118 122 145 166 171 174 169 160 163 169 167 171 175 172 169 168 169 176 178 184 190 193 193 194 195 206 213 222 223 252
163 193 226 182 225 269 277 251 314 325 305 300 307 301 58 70 130 138 159 156 161 169 170 177 175 168 161 169 173 166 174 175 179 181 179 176 177 182 191 199 202 203 203 202 210 227 236 247 252
200 235 209 239 239 252 274 278 269 244 278 262 274 236 180 105 96 137 170 176 177 171 172 177 175 172 169 177 173 176 172 177 183 186 184 186 186 187 194 200 210 214 216 210 215 228 235 237 248
239 239 234 263 244 250 258 269 264 234 254 246 269 220 217 146 150 159 180 173 169 172 174 172 173 175 181 174 180 182 183 184 190 194 188 180 185 201 189 199 208 203 203 200 206 229 239 249 254
205 238 248 248 251 241 257 263 262 265 263 268 275 236 199 185 169 170 180 169 162 181 173 175 169 180 177 175 182 188 194 196 192 193 191 192 190 207 195 202 198 195 187 213 211 235 243 244 261
219 243 261 271 263 249 240 259 214 257 246 255 261 250 202 199 191 145 183 178 179 174 185 176 181 183 175 180 184 189 191 195 192 189 192 195 198 178 207 197 204 205 191 207 214 226 242 240 216
275 304 322 243 258 255 181 271 243 235 222 224 244 231 197 236 233 198 182 189 187 189 175 183 184 185 185 184 183 188 191 189 199 203 189 199 197 185 193 208 219 215 207 209 208 240 252 267 255
356 49 324 281 328 264 168 262 278 214 231 254 255 252 248 210 215 228 218 182 194 172 177 182 183 187 187 193 194 192 193 193 193 200 200 190 195 194 195 205 214 197 205 200 211 219 248 248 254
357 257 262 302 216 236 197 276 270 296 209 235 246 252 253 258 244 229 235 203 181 197 177 183 185 183 188 183 185 198 200 186 248 254 224 211 199 183 194 208 202 193 215 184 198 239 194 226 253
261 295 289 283 276 214 281 275 264 274 276 270 227 230 232 237 241 248 231 213 184 189 177 181 179 182 181 171 156 165 165 195 175 179 240 249 228 195 190 196 195 181 188 210 167 218 217 211 222
234 247 259 276 277 275 264 266 264 269 293 289 277 219 226 242 254 254 237 202 154 155 169 167 157 165 162 158 170 164 175 161 189 220 191 230 242 234 230 196 177 175 192 202 192 174 202 251 166
239 258 273 276 263 211 259 268 264 249 261 258 275 217 216 229 255 321 246 179 176 168 171 157 154 154 170 167 146 133 128 176 184 204 211 197 202 219 212 222 172 192 181 177 188 181 159 234 180
262 251 266 251 265 263 272 284 287 259 261 285 294 246 275 233 227 200 226 221 168 172 172 169 166 154 151 140 119 98 76 99 164 178 210 208 217 205 237 209 186 158 160 214 180 198 185 217 203
275 277 266 265 207 256 153 275 265 242 257 293 291 282 247 232 239 236 200 219 217 192 176 160 163 157 147 144 136 172 188 172 184 173 195 207 217 237 242 248 201 180 176 198 160 217 216 157 214
252 292 279 273 225 116 237 221 274 231 268 264 271 277 281 268 214 214 210 209 206 179 179 168 153 147 139 144 150 149 171 176 177 194 167 210 225 217 267 270 255 210 191 173 189 175 226 187 205
295 330 344 19 121 239 229 178 275 244 223 242 249 272 276 275 263 228 213 203 192 158 149 153 150 155 151 138 145 145 155 177 172 208 192 227 226 200 211 231 244 261 258 219 230 218 221 208 219
28 47 320 293 257 252 152 183 246 279 232 236 279 298 292 277 263 232 187 177 157 173 170 166 152 158 157 145 150 153 164 173 191 196 191 166 237 245 246 201 205 212 230 245 227 203 211 223 202
189 175 225 268 240 269 271 229 256 142 241 231 218 7 329 327 273 214 193 180 174 177 175 158 156 151 165 163 161 159 170 178 190 196 186 196 189 217 255 248 253 261 252 252 234 226 232 254 237
186 191 83 253 224 255 235 274 299 284 279 252 91 49 16 351 15 23 277 179 164 168 179 164 155 159 169 178 169 181 183 190 201 208 195 209 208 223 236 223 217 219 208 220 218 229 237 233 236
152 139 33 219 249 218 279 276 243 298 322 282 96 75 43 13 20 32 35 35 1 302 179 171 166 169 186 186 180 190 193 197 204 189 214 217 235 223 239 260 242 251 237 213 220 243 244 244 253
140 101 276 249 242 273 303 259 242 35 356 340 349 58 72 70 27 9 23 15 21 5 350 246 186 188 186 183 191 188 199 200 194 214 235 233 239 222 226 241 257 272 266 243 227 238 256 246 253
175 183 181 169 285 301 310 273 102 47 23 359 332 316 288 137 121 70 20 360 342 334 204 257 284 203 198 196 185 198 199 194 199 213 229 220 224 246 235 218 216 232 231 240 225 237 242 242 251